When you browse on this site, cookies collect data to enhance your experience and personalize the content and advertising you see.
Visit our Privacy Policy to learn more. By continuing to use the site, you agree to this use of cookies and data.
  • In Romania
  • List of Countries
  • For 7 days
  • Water Temperature
  • Weather Map
  • Weather Widgets
  • user-avatar
    Login

    Hourly Weather Recife

    Today, 22 November, Friday

    Time Temperature Precipitation Wind Pressure Humidity
    00:00 +26°C° 0 mm 4 mps 757 mmHg 80%
    01:00 +26°C° 0 mm 4 mps 757 mmHg 81%
    02:00 +26°C° 0.1 mm 4 mps 756 mmHg 81%
    03:00 +26°C° 0.1 mm 4 mps 756 mmHg 81%
    04:00 +26°C° 0.1 mm 3 mps 756 mmHg 82%
    05:00 +26°C° 0 mm 4 mps 756 mmHg 79%
    06:00 +27°C° 0 mm 4 mps 757 mmHg 76%
    07:00 +27°C° 0 mm 4 mps 757 mmHg 74%
    08:00 +28°C° 0 mm 4 mps 757 mmHg 68%
    09:00 +29°C° 0 mm 4 mps 758 mmHg 62%
    10:00 +32°C° 0 mm 4 mps 758 mmHg 56%
    11:00 +32°C° 0 mm 4 mps 758 mmHg 55%
    12:00 +32°C° 0 mm 4 mps 757 mmHg 54%
    13:00 +33°C° 0 mm 4 mps 757 mmHg 54%
    14:00 +32°C° 0 mm 4 mps 756 mmHg 55%
    15:00 +32°C° 0 mm 4 mps 756 mmHg 57%
    16:00 +30°C° 0 mm 4 mps 755 mmHg 58%
    17:00 +29°C° 0 mm 4 mps 756 mmHg 63%
    18:00 +28°C° 0 mm 4 mps 756 mmHg 68%
    19:00 +27°C° 0 mm 4 mps 757 mmHg 73%
    20:00 +27°C° 0 mm 4 mps 757 mmHg 75%
    21:00 +27°C° 0 mm 4 mps 758 mmHg 77%
    22:00 +26°C° 0 mm 4 mps 758 mmHg 79%
    23:00 +26°C° 0 mm 4 mps 758 mmHg 80%

    Tomorrow, 23 November, Saturday

    Time Temperature Precipitation Wind Pressure Humidity
    00:00 +26°C° 0 mm 4 mps 758 mmHg 81%
    01:00 +26°C° 0 mm 4 mps 757 mmHg 82%
    02:00 +26°C° 0 mm 3 mps 757 mmHg 82%
    03:00 +26°C° 0 mm 3 mps 757 mmHg 82%
    04:00 +26°C° 0 mm 3 mps 756 mmHg 82%
    05:00 +26°C° 0 mm 3 mps 757 mmHg 80%
    06:00 +27°C° 0 mm 3 mps 757 mmHg 78%
    07:00 +27°C° 0 mm 3 mps 757 mmHg 76%
    08:00 +28°C° 0 mm 3 mps 757 mmHg 70%
    09:00 +29°C° 0 mm 3 mps 758 mmHg 65%
    10:00 +30°C° 0 mm 4 mps 758 mmHg 59%
    11:00 +32°C° 0 mm 4 mps 758 mmHg 57%
    12:00 +32°C° 0 mm 4 mps 757 mmHg 56%
    13:00 +33°C° 0 mm 4 mps 757 mmHg 54%
    14:00 +32°C° 0 mm 4 mps 756 mmHg 55%
    15:00 +32°C° 0 mm 4 mps 756 mmHg 57%
    16:00 +32°C° 0 mm 4 mps 755 mmHg 58%
    17:00 +29°C° 0 mm 4 mps 756 mmHg 63%
    18:00 +28°C° 0 mm 4 mps 756 mmHg 67%
    19:00 +27°C° 0 mm 3 mps 756 mmHg 72%
    20:00 +27°C° 0 mm 4 mps 757 mmHg 75%
    21:00 +26°C° 0 mm 4 mps 757 mmHg 78%
    22:00 +26°C° 0 mm 4 mps 757 mmHg 81%
    23:00 +26°C° 0 mm 3 mps 757 mmHg 81%

    Day after tomorrow, 24 November, Sunday

    Time Temperature Precipitation Wind Pressure Humidity
    00:00 +26°C° 0 mm 3 mps 757 mmHg 82%
    01:00 +26°C° 0 mm 3 mps 756 mmHg 82%
    02:00 +27°C° 0 mm 3 mps 756 mmHg 79%
    03:00 +27°C° 0 mm 3 mps 756 mmHg 77%
    04:00 +27°C° 0 mm 3 mps 756 mmHg 74%
    05:00 +27°C° 0 mm 3 mps 756 mmHg 73%
    06:00 +28°C° 0 mm 3 mps 756 mmHg 71%
    07:00 +28°C° 0 mm 3 mps 757 mmHg 70%
    08:00 +29°C° 0 mm 3 mps 757 mmHg 64%
    09:00 +30°C° 0 mm 3 mps 757 mmHg 59%
    10:00 +33°C° 0 mm 4 mps 757 mmHg 53%
    11:00 +33°C° 0 mm 4 mps 757 mmHg 53%
    12:00 +34°C° 0 mm 5 mps 756 mmHg 52%
    13:00 +34°C° 0 mm 5 mps 756 mmHg 51%
    14:00 +34°C° 0 mm 5 mps 755 mmHg 53%
    15:00 +34°C° 0 mm 5 mps 755 mmHg 55%
    16:00 +33°C° 0 mm 6 mps 754 mmHg 57%
    17:00 +32°C° 0 mm 6 mps 754 mmHg 62%
    18:00 +30°C° 0 mm 6 mps 755 mmHg 67%
    19:00 +29°C° 0 mm 6 mps 755 mmHg 72%
    20:00 +28°C° 0 mm 5 mps 755 mmHg 74%
    21:00 +28°C° 0 mm 5 mps 756 mmHg 76%
    22:00 +28°C° 0 mm 4 mps 756 mmHg 78%
    23:00 +27°C° 0 mm 4 mps 756 mmHg 80%

    25 November, Monday

    Time Temperature Precipitation Wind Pressure Humidity
    00:00 +27°C° 0 mm 4 mps 756 mmHg 81%
    01:00 +27°C° 0 mm 4 mps 755 mmHg 82%
    02:00 +27°C° 0 mm 4 mps 755 mmHg 83%
    03:00 +27°C° 0 mm 3 mps 755 mmHg 84%
    04:00 +27°C° 0 mm 3 mps 755 mmHg 85%
    05:00 +27°C° 0 mm 3 mps 755 mmHg 82%
    06:00 +27°C° 0 mm 3 mps 756 mmHg 80%
    07:00 +28°C° 0 mm 4 mps 756 mmHg 78%
    08:00 +29°C° 0 mm 4 mps 756 mmHg 71%
    09:00 +32°C° 0 mm 4 mps 757 mmHg 65%
    10:00 +33°C° 0 mm 5 mps 757 mmHg 58%
    11:00 +34°C° 0 mm 5 mps 756 mmHg 56%
    12:00 +34°C° 0 mm 5 mps 756 mmHg 54%
    13:00 +35°C° 0 mm 6 mps 755 mmHg 52%
    14:00 +35°C° 0 mm 6 mps 755 mmHg 54%
    15:00 +34°C° 0 mm 6 mps 754 mmHg 55%
    16:00 +34°C° 0 mm 6 mps 754 mmHg 57%
    17:00 +32°C° 0 mm 6 mps 754 mmHg 63%
    18:00 +30°C° 0 mm 6 mps 755 mmHg 69%
    19:00 +29°C° 0 mm 6 mps 755 mmHg 75%
    20:00 +28°C° 0 mm 5 mps 755 mmHg 77%
    21:00 +28°C° 0 mm 5 mps 756 mmHg 80%
    22:00 +28°C° 0 mm 4 mps 756 mmHg 82%
    23:00 +28°C° 0 mm 4 mps 756 mmHg 82%

    26 November, Tuesday

    Time Temperature Precipitation Wind Pressure Humidity
    00:00 +28°C° 0 mm 4 mps 756 mmHg 82%
    01:00 +27°C° 0 mm 4 mps 756 mmHg 83%
    02:00 +27°C° 0.1 mm 3 mps 755 mmHg 83%
    03:00 +27°C° 0.1 mm 3 mps 755 mmHg 83%
    04:00 +27°C° 0.1 mm 3 mps 755 mmHg 83%
    05:00 +28°C° 0.1 mm 3 mps 756 mmHg 81%
    06:00 +28°C° 0.1 mm 3 mps 756 mmHg 79%
    07:00 +28°C° 0.1 mm 3 mps 756 mmHg 76%
    08:00 +29°C° 0.1 mm 3 mps 756 mmHg 72%
    09:00 +30°C° 0.1 mm 4 mps 757 mmHg 68%
    10:00 +32°C° 0.1 mm 4 mps 757 mmHg 63%
    11:00 +32°C° 0 mm 4 mps 756 mmHg 60%
    12:00 +33°C° 0 mm 4 mps 756 mmHg 57%
    13:00 +34°C° 0 mm 5 mps 756 mmHg 54%
    14:00 +34°C° 0 mm 5 mps 755 mmHg 55%
    15:00 +33°C° 0 mm 5 mps 755 mmHg 56%
    16:00 +33°C° 0 mm 5 mps 755 mmHg 58%
    17:00 +32°C° 0 mm 4 mps 755 mmHg 63%
    18:00 +30°C° 0 mm 4 mps 756 mmHg 68%
    19:00 +29°C° 0 mm 4 mps 756 mmHg 73%
    20:00 +28°C° 0 mm 4 mps 756 mmHg 75%
    21:00 +28°C° 0 mm 4 mps 757 mmHg 77%
    22:00 +28°C° 0 mm 4 mps 757 mmHg 78%
    23:00 +28°C° 0.1 mm 3 mps 757 mmHg 79%

    27 November, Wednesday

    Time Temperature Precipitation Wind Pressure Humidity
    00:00 +28°C° 0.1 mm 3 mps 757 mmHg 79%
    01:00 +27°C° 0.1 mm 3 mps 756 mmHg 79%
    02:00 +27°C° 0.1 mm 3 mps 756 mmHg 80%
    03:00 +27°C° 0.1 mm 3 mps 756 mmHg 81%
    04:00 +27°C° 0.1 mm 3 mps 755 mmHg 82%
    05:00 +27°C° 0.1 mm 3 mps 755 mmHg 80%
    06:00 +28°C° 0.1 mm 3 mps 756 mmHg 78%
    07:00 +28°C° 0.1 mm 3 mps 756 mmHg 76%
    08:00 +30°C° 0 mm 3 mps 756 mmHg 69%
    09:00 +32°C° 0 mm 4 mps 757 mmHg 62%
    10:00 +33°C° 0 mm 4 mps 757 mmHg 54%
    11:00 +34°C° 0 mm 4 mps 757 mmHg 54%
    12:00 +34°C° 0 mm 4 mps 756 mmHg 53%
    13:00 +34°C° 0 mm 5 mps 756 mmHg 53%
    14:00 +34°C° 0 mm 5 mps 756 mmHg 54%
    15:00 +33°C° 0 mm 5 mps 755 mmHg 56%
    16:00 +33°C° 0 mm 5 mps 755 mmHg 58%
    17:00 +32°C° 0 mm 4 mps 755 mmHg 63%
    18:00 +29°C° 0 mm 4 mps 756 mmHg 68%
    19:00 +28°C° 0 mm 4 mps 756 mmHg 73%
    20:00 +28°C° 0 mm 4 mps 756 mmHg 75%
    21:00 +28°C° 0 mm 4 mps 757 mmHg 77%
    22:00 +27°C° 0 mm 4 mps 757 mmHg 78%
    23:00 +27°C° 0 mm 4 mps 757 mmHg 80%
    Show more